• MPC Preparation (Info)

  • MPEC 2019-T133 : S/2004 S 26

    The following Minor Planet Electronic Circular may be linked-to from your own Web pages, but must not otherwise be redistributed electronically.

    A form allowing access to any MPEC is at the bottom of this page.


    Read MPEC 2019-T132 Read MPEC 2019-T134


    M.P.E.C. 2019-T133                              Issued 2019 October 7, 18:07 UT
    
         The Minor Planet Electronic Circulars contain information on unusual
             minor planets and routine data on comets.  They are published
        on behalf of Division F of the International Astronomical Union by the
              Minor Planet Center, Smithsonian Astrophysical Observatory,
                              Cambridge, MA 02138, U.S.A.
    
                 Prepared using the Tamkin Foundation Computer Network
    
                                  MPC@CFA.HARVARD.EDU
                URL https://www.minorplanetcenter.net/    ISSN 1523-6714
    
                                   S/2004 S 26                               
    
    
    Observations:
        SK04S260* C2004 12 12.37964 07 46 59.009+20 59 52.64               cET133568
        SK04S260  C2004 12 12.41589 07 46 58.482+20 59 53.61               cET133568
        SK04S260  C2004 12 14.59009 07 46 25.116+21 01 36.52         24.5 RcET133568
        SK04S260  C2004 12 14.61432 07 46 24.840+21 01 36.25         24.6 RcET133568
        SK04S260  C2005 01 05.62764 07 39 39.722+21 21 15.17         24.5 RcET133568
        SK04S260  C2005 01 05.64990 07 39 39.226+21 21 16.31               cET133568
        SK04S260  C2005 03 11.23724 07 23 09.055+22 06 42.18         25.4 RVET133568
        SK04S260  C2005 03 11.32977 07 23 08.650+22 06 43.73         25.3 RVET133568
        SK04S260  C2006 02 01.28587 08 41 49.143+19 07 59.20         25.3 RcET133568
        SK04S260  C2006 02 01.31124 08 41 48.655+19 08 01.71         25.4 RcET133568
        SK04S260  C2006 02 02.28678 08 41 29.992+19 09 19.40               cET133568
        SK04S260  C2006 02 02.30943 08 41 29.577+19 09 20.97               cET133568
        SK04S260  C2007 01 16.38087 09 47 45.405+14 41 07.52         25.2 RcET133568
        SK04S260  C2007 01 16.40097 09 47 45.071+14 41 09.28         25.1 RcET133568
        SK04S260  C2007 01 16.41545 09 47 44.826+14 41 10.53               cET133568
        SK04S260  C2007 01 17.38393 09 47 29.247+14 42 38.45               cET133568
        SK04S260  C2007 01 17.39840 09 47 28.985+14 42 39.56               cET133568
        SK04S260  C2007 01 17.41290 09 47 28.761+14 42 41.11               cET133568
        SK04S260  C2007 03 21.23532 09 28 41.609+16 17 11.75               cET133568
        SK04S260  C2007 03 21.25631 09 28 41.313+16 17 12.93               cET133568
        SK04S260  C2007 03 21.28085 09 28 40.986+16 17 14.59         25    cET133568
    
    Observer details:
    568 Mauna Kea.  Observers S. S. Sheppard, D. C. Jewitt, J. Kleyna.  Measurers 
       S. S. Sheppard, B. Marsden.  8.2-m reflector + CCD.
    
    Orbital elements:
    S/2004 S 26
    Epoch 2019 Apr. 27.0 TT = JDT 2458600.5                 Williams
    M 301.05768              (2000.0)            P               Q
    n   0.22131067     Peri.  147.07319     -0.89425398     -0.44724442
    a   0.1783195      Node   353.57207     -0.43619735     +0.86253215
    e   0.1645248      Incl.  171.36934     -0.10020820     +0.23666585
    P   4.45           H   15.8           P/d  1626.67
    From 21 observations 2004 Dec. 12-2007 Mar. 21, mean residual 0".44.
    
    Residuals in seconds of arc
    041212 568  0.6-  0.7+    050311 568  0.1-  0.5-    070116 568  0.5-  0.6-
    041212 568  0.3-  0.1-    060201 568  0.1-  0.0     070117 568  0.5+  0.1-
    041214 568  0.8-  1.0+    060201 568  0.1-  0.4+    070117 568  0.1+  0.3-
    041214 568  0.8+  0.4-    060202 568  0.0   0.3+    070117 568  0.4+  0.1-
    050105 568  0.8+  0.3-    060202 568  0.4+  0.1+    070321 568  0.2+  0.6+
    050105 568  0.3+  0.4-    070116 568  0.3-  0.5-    070321 568  0.1-  0.5+
    050311 568  0.1-  0.6-    070116 568  0.4-  0.6-    070321 568  0.0   0.7+
    
    
    A. U. Tomatic                (C) Copyright 2019 MPC           M.P.E.C. 2019-T133
    


    Read MPEC 2019-T132 Read MPEC 2019-T134


    MPEC number:

    Enter an MPEC number in one of the following forms:

    • 1997-B01 (the full form)
    • J97B01 (the packed version of the full form)
    • B01 (the abbreviated form)